www.pogodaiklimat.ru
Время
(UTC), дата
06 10.11
09 10.11
12 10.11
15 10.11
18 10.11
21 10.11
00 11.11
03 11.11
09 11.11
12 11.11
15 11.11
18 11.11
21 11.11
00 12.11
03 12.11
06 12.11
09 12.11
12 12.11
15 12.11
18 12.11
21 12.11
00 13.11
03 13.11
06 13.11
09 13.11
12 13.11
15 13.11
18 13.11
21 13.11
00 14.11
03 14.11
06 14.11
09 14.11
12 14.11
15 14.11
18 14.11
21 14.11
00 15.11
03 15.11
06 15.11
09 15.11
12 15.11
15 15.11
18 15.11
21 15.11
00 16.11
03 16.11
06 16.11
09 16.11
12 16.11
15 16.11
18 16.11
21 16.11
00 17.11
03 17.11
Ветер
(напр.,м/с)
Видим. Явления Облачность Т
(С)
Тd
(С)
f
(%)
Тe
(С)
Тes
(С)
Комфортность P
(гПа)
Po
(гПа)
Тmin
(С)
Tmax
(С)
R
(мм)
R24
(мм)
S
(см)
ЮВ 1 20 км 10/10 210 м
[St]
-19.7 -21.8 83 -23 -23 очень
холодно
1031.6 1030.1
В 1 20 км 9/3 300 м
[St Ac trans]
-19.1 -21.1 84 -22 -22 холодно 1030.2 1028.7
В 1 20 км 10/0
[Ac As]
-16.6 -18.4 86 -19 -19 прохладно 1028.2 1026.8
ЮВ 2 4000 м слаб. снег 10/9 420 м
[Sc As op]
-15.1 -16.8 87 -20 -20 холодно 1025.4 1023.9 -15.1 0.2
В 2 4000 м слаб. снег 10/9 400 м
[Sc As op]
-15.1 -16.7 88 -20 -20 прохладно 1023.3 1021.8
ЮВ 1 4000 м слаб. снег 10/9 360 м
[Sc As op]
-13.8 -15.4 88 -16 -16 по сезону 1021.3 1019.9
В 1 20 км в посл. час снег 10/10 420 м
[Sc]
-13.0 -14.5 88 -15 -15 по сезону 1019.2 1017.8
В 1 4000 м слаб. снег 10/10 300 м
[Frnb Ns]
-12.4 -13.8 89 -15 -15 по сезону 1017.7 1016.3 -15.2 3 24
С 1 20 км 8/0
[Ac trans]
-13.7 -15.2 88 -16 -16 по сезону 1017.8 1016.3
С 2 20 км {ливн. осадки} 1/0
[Ac trans]
-16.5 -18.3 86 -22 -22 очень
холодно
1019.4 1018.0
С 2 20 км ясно -19.5 -21.7 83 -25 -25 очень
холодно
1021.6 1020.1 -12.4 0.2
СВ 1 4000 м слаб. снег 10/9 240 м
[Frnb As op]
-15.0 -16.7 87 -18 -18 прохладно 1023.0 1021.5
штиль 0 20 км {снег} 4/0
[Ac lent]
-22.1 -24.5 81 -22 -22 очень
холодно
1024.5 1023.0
штиль 0 2000 м дымка {снег} [диам. изморози 20 мм] 4/0
[Ac trans]
-24.8 -27.3 80 -25 -25 очень
холодно
1025.7 1024.2
штиль 0 1000 м дымка [диам. изморози 21 мм] 10/10 60 м
[St]
-23.4 -25.8 81 -23 -23 очень
холодно
1026.2 1024.7 -24.9 0.0 24
штиль 0 20 км [диам. изморози 25 мм] 4/0
[Ac trans]
-26.0 -28.6 79 -26 -26 очень
холодно
1026.8 1025.2 -26.4
В 1 20 км 8/0
[Ac trans Ci fib]
-24.2 -26.7 80 -28 -28 очень
холодно
1027.3 1025.8
В 1 20 км [диам. изморози 25 мм] 4/0
[Ac trans]
-25.7 -28.3 79 -29 -29 очень
холодно
1027.5 1026.0
СВ 1 20 км [диам. изморози 25 мм] 4/0
[Ac trans]
-25.8 -28.4 79 -29 -29 очень
холодно
1028.1 1026.5 -23.4
СВ 1 20 км 6/0
[Ci fib]
-23.6 -26.1 80 -27 -27 очень
холодно
1029.2 1027.7
В 1 20 км 8/0
[Ac trans Ci fib]
-23.2 -25.6 81 -27 -27 очень
холодно
1029.9 1028.4
СВ 1 20 км [диам. изморози 25 мм] 10/0
[Ac trans Ci fib]
-22.6 -24.9 81 -26 -26 очень
холодно
1030.9 1029.4
СВ 1 20 км [диам. изморози 25 мм] 10/0
[Ac trans Ci fib]
-23.0 -25.3 81 -26 -26 очень
холодно
1032.1 1030.6 -25.8 24
СВ 1 20 км 4/0
[Ci fib]
-23.5 -25.9 81 -27 -27 очень
холодно
1033.1 1031.5
СВ 1 20 км 1/0
[Ci fib]
-22.6 -25.1 80 -26 -26 очень
холодно
1034.6 1033.1
В 1 20 км [диам. изморози 25 мм] 1/0
[Ci fib]
-23.5 -26.0 80 -27 -27 очень
холодно
1035.5 1034.0
В 1 20 км 1/0
[Ci fib]
-24.7 -27.2 80 -28 -28 очень
холодно
1035.8 1034.3 -22.2
Ю 1 20 км 9/0
[Cs]
-22.3 -24.6 81 -26 -26 очень
холодно
1036.3 1034.8
ЮВ 1 20 км 10/0
[Ac As]
-19.1 -21.1 84 -22 -22 холодно 1035.5 1034.0
ЮВ 2 20 км [диам. изморози 28 мм] 10/0
[Ac As]
-17.1 -19.0 85 -22 -22 холодно 1034.6 1033.1
ЮВ 3 20 км [диам. изморози 27 мм] 10/0
[Ac As]
-14.6 -16.3 87 -21 -21 холодно 1031.2 1029.7 -24.7 24
ЮВ 4-10
{10}
4000 м слаб. снег [диам. изморози 25 мм] 10/0
[Ac As]
-12.3 -14.1 86 -19 -19 прохладно 1029.0 1027.5
ЮВ 5
{10}
4000 м слаб. снег {метель} 10/10 300 м
[Frnb Ns]
-11.0 -13.0 85 -19 -19 прохладно 1025.9 1024.4
ЮВ 4
{10}
4000 м слаб. снег {метель} 10/9 330 м
[Frnb As op]
-9.9 -11.7 87 -17 -17 прохладно 1022.9 1021.5
ЮВ 5
{10}
20 км позёмок {снег} 10/8 450 м
[Sc Ac trans]
-8.8 -11.0 84 -16 -16 по сезону 1020.3 1018.9 -8.8 0.8
ЮВ 5
{10}
20 км позёмок {снег} 10/0
[Ac und]
-8.7 -11.0 83 -16 -16 по сезону 1018.2 1016.8
Ю 3
{10}
20 км позёмок 10/10 1020 м
[Sc]
-8.6 -10.7 85 -14 -14 по сезону 1017.2 1015.8
ЮВ 3 20 км {метель} 10/10 300 м
[St]
-8.6 -9.9 90 -14 -14 по сезону 1016.2 1014.8
Ю 4 20 км {метель} 10/10 210 м
[St]
-8.0 -9.3 90 -15 -15 по сезону 1014.2 1012.7 -9.0 24
Ю 4 20 км позёмок 10/10 210 м
[St]
-6.8 -8.0 91 -14 -14 по сезону 1010.6 1009.2
Ю 5
{10}
4000 м слаб. переохл. дождь (гололёд) {метель} [диам. гололёда 1 мм] 10/10 270 м
[Frnb Ns]
-3.1 -3.8 95 -10 -10 по сезону 1004.8
Ю 3 10 км слаб. переохл. дождь (гололёд) {метель} [диам. гололёда 3 мм] 10/10 300 м
[Frnb]
+0.2 -0.3 96 -5 -5 тепло 1002.4 1001.0
ЮЗ 6-11
{11}
10 км слаб. дождь 10/10 180 м
[Frnb Ns]
+1.5 +1.1 97 -5 -5 тепло 999.4 998.1 +1.5 4
З 8-15
{16}
10 км слаб. дождь 10/10 300 м
[Frnb Ns]
+1.2 +0.1 92 -6 -6 тепло 999.7 998.3
З 9-15
{17}
20 км в посл. час ливневой снег {дождь} 10/10 600 м
[Sc]
+1.5 -0.5 87 -6 -6 тепло 1001.8 1000.5
З 9-16
{21}
4000 м слаб. ливневой дождь со снегом 10/10 400 м
[Cb cap]
+1.2 -0.0 92 -6 -6 тепло 1002.5 1001.2
З 8-14
{21}
4000 м слаб. ливневой дождь со снегом 10/10 480 м
[Cb cap]
+0.8 -0.3 92 -7 -7 по сезону 1004.9 1003.6 +0.8 1 18
З 8-14
{18}
20 км {ливн. осадки} 10/8 750 м
[Sc Ac und]
+0.7 -2.1 82 -7 -7 по сезону 1007.6 1006.2 +0.6
З 6-10
{14}
20 км {ливн. осадки} 8/4 1000 м
[Sc Ac trans]
-0.8 -3.4 83 -8 -8 по сезону 1009.6 1008.2
З 6-10
{11}
20 км {ливн. осадки} 8/6 1200 м
[Sc Ac trans Ci fib]
-2.5 -5.0 83 -10 -10 по сезону 1011.9 1010.5
З 5
{10}
4000 м слаб. ливневой снег 10/10 240 м
[Cb cap]
-2.3 -3.2 94 -9 -9 по сезону 1012.0 1010.6 +1.0 0.3
З 6
{11}
10 км слаб. ливневой снег 10/10 570 м
[Cb calv]
-4.3 -6.3 86 -12 -12 по сезону 1013.2 1011.8
З 5
{11}
4000 м слаб. ливневой снег {метель} 10/10 480 м
[Cb calv]
-4.6 -6.0 90 -12 -12 по сезону 1015.3 1013.9
З 6 20 км позёмок {ливн. осадки} 9/6 500 м
[Sc Ac trans]
-4.6 -6.5 87 -12 -12 по сезону 1016.3 1014.9
СЗ 6
{10}
10 км слаб. ливневой снег {метель} 9/8 600 м
[Cb calv Ac trans]
-3.8 -5.8 86 -11 -11 по сезону 1017.6 1016.2 -4.8 0.5 19
Местоположение метеостанции Нарьян-Мар (Ненецкий АО, Россия): широта 67.63 долгота 53.02 высота над уровнем моря 12 м.
В архиве по умолчанию представлена погода в Нарьян-Маре за последнюю неделю. Архивные данные за месяц целиком и за предыдущие месяцы, начиная с января 2011 года, Вы можете получить, выбрав интересующий диапазон дат из раскрывающегося списка и нажав кнопку "Найти!".
*Определитесь, кто Вы:
Внимание! Время в таблицах - всемирное. Для получения местного времени необходимо прибавить поправку, которая равна 3 ч.
Смотрите также архив погоды в соседних городах и на ближайших метеорологических станциях:
Партнеры нашего сайта:      
Пояснения к столбцам:
  • Ветер - указаны скорость ветра в м/с - средняя за 10 мин, порывы в срок и между сроками (в фигурных скобках) и направление, откуда дует ветер: С - северный,
  • СВ - северо-восточный, В - восточный, ЮВ - юго-восточный, Ю - южный, ЮЗ - юго-западный, З - западный, СЗ - северо-западный.
  • Видимость - горизонтальная дальность видимости в метрах или километрах. При видимости от 1 до 10 км при отсутствии осадков обычно наблюдается дымка, при ухудшении видимости до 1 км и менее - туман. В сухую погоду видимость может ухудшаться дымом, пылью или мглою.
  • Явления - указаны атмосферные явления, наблюдавшиеся в срок или в последний час перед сроком; фигурными скобками обозначены явления, наблюдавшиеся между сроками (за 1-3 часа до срока); квадратными скобками обозначены град или гололедные отложения с указанием их диаметра в мм.
  • Облачность - указаны через наклонную черту общая и нижняя облачность в баллах и высота нижней границы облаков в метрах; квадратными скобками обозначены формы облаков: Ci - перистые, Cs - перисто-слоистые, Cc - перисто-кучевые, Ac - высококучевые, As - высокослоистые, Sc - слоисто-кучевые, Ns - слоисто-дождевые, Cu - кучевые, Cb - кучево-дождевые. Подробнее классификацию облаков см. в Атласе облаков (PDF).
  • T - Температура воздуха - температура, измеренная на высоте 2 м над землей.
  • Td - Температура точки росы - температура, при понижении до которой содержащийся в воздухе водяной пар достигнет насыщения.
  • f - Относительная влажность воздуха - влажноcть воздуха, измеренная на высоте 2 м над землей.
  • Te - Эффективная температура - температура, которую ощущает одетый по сезону человек в тени. Характеристика душности погоды. При расчете учитывается влияние влажности воздуха и скорости ветра на теплоощущения человека.
  • Tes - Эффективная температура на солнце - температура, которую ощущает человек, с поправкой на солнечный нагрев. Характеристика знойности погоды. Зависит от высоты солнца над горизонтом, облачности и скорости ветра. Ночью, в пасмурную погоду, а также при ветре 12 м/с и более поправка равна нулю.
  • P - Атмосферное давление - приведенное к уровню моря атмосферное давление.
  • Po - Атмосферное давление - измеренное на уровне метеостанции атмосферное давление.
  • Tmin - Минимальная температура - минимум температуры воздуха на высоте 2 м над землей.
  • Tmax - Максимальная температура - максимум температуры воздуха на высоте 2 м над землей.
  • R - Количество осадков - Количество выпавших осадков за период времени, мм. При наведении курсора мыши на число - период времени, за который выпало указанное количество осадков.
  • R24 - Количество осадков - Количество выпавших осадков за 24 часа, мм.
  • S - Снежный покров - Высота снежного покрова, см. При наведении курсора мыши на число - состояние снежного покрова и степень покрытия местности в баллах.